Regional Weather Roundup
Issued by NWS Portland, ME

Home | Current Version | Previous Version | Text Only | Print | Product List | Glossary On
Versions: 1 2 3 4 5 6 7 8 9 10 11 12 13 14 15 16 17 18 19 20 21 22 23 24 25 26 27 28 29 30 31 32 33 34 35 36 37 38 39 40 41 42 43 44 45 46 47 48 49 50
000
ASUS41 KGYX 232210
RWRGYX
WEATHER ROUNDUP FOR MAINE AND NEW HAMPSHIRE
NATIONAL WEATHER SERVICE GRAY ME
500 PM EST TUE JAN 23 2018

MEZ002-005-006-010-012-015-018-020-021-024-026-027-029-232300-
MAINE

CITY           SKY/WX    TMP DP  RH WIND       PRES   REMARKS
PORTLAND       LGT RAIN  33  33 100 NW8       29.51F FOG
SANFORD        LGT RAIN  34  32  93 CALM      29.50F FOG
BAR HARBOR     HVY RAIN  50  49  96 S24G30    29.55F FOG
WISCASSET      FOG       40  40 100 W7        29.51F VSB 1/4
ROCKLAND       LGT RAIN  47  47 100 S10G17    29.50F FOG
FRYEBURG       CLOUDY    32  32 100 CALM      29.50F
LEWISTONAUBURN MIX PCPN  32  32 100 NE3       29.50F FOG
AUGUSTA        FRZ RAIN  32  31  96 NW8       29.52S FOG
WATERVILLE     MIX PCPN  32  30  93 N6        29.47F FOG
BANGOR         LGT RAIN  46  45  96 S16       29.48F FOG
GREENVILLE     NOT AVBL
MILLINOCKET    MIX PCPN  32  32 100 N3        29.52F FOG
HOULTON        LGT RAIN  34  33  96 SE20G29   29.50F FOG
PRESQUE ISLE   FLURRIES  27  25  92 NW5       29.57F
FRENCHVILLE    FRZ RAIN  17  15  92 E10       29.56S FOG     WCI   5
CARIBOU        FRZ RAIN  27  24  89 N6        29.56F FOG
$$

NHZ002-005-008-009-011-012-014-232300-
NEW HAMPSHIRE

CITY           SKY/WX    TMP DP  RH WIND       PRES   REMARKS
PORTSMOUTH     LGT RAIN  33  33  99 NW6       29.48F FOG
ROCHESTER      LGT RAIN  33  33 100 N5        29.48F FOG
NASHUA         MOCLDY    32  32 100 NW3       29.50F
MANCHESTER     MOCLDY    33  32  96 NW5       29.48F
CONCORD        CLOUDY    33  31  92 W3        29.50S
LACONIA        CLOUDY    32  32 100 CALM      29.50S
PLYMOUTH       CLOUDY    32  32  99 CALM      29.49F FOG
BERLIN         CLOUDY    34  33  96 CALM      29.46F
WHITEFIELD     CLOUDY    36  36 100 SE3       29.47F
JAFFREY        FOG       34  34 100 CALM      29.48F VSB 1/4
KEENE          FOG       35  34  96 S5        29.51R VSB 1/2
LEBANON        CLOUDY    34  34 100 S3        29.50S FOG
MT WASHINGTON  FOG       30  30 100 W35         N/A  VSB 1/8 WCI  14
$$

VTZ005-007-008-232300-
VERMONT

CITY           SKY/WX    TMP DP  RH WIND       PRES   REMARKS
ST JOHNSBURY     N/A     35  35 100 MISG      29.48F
MONTPELIER     CLOUDY    34  34 100 CALM      29.49F
BURLINGTON     MOCLDY    40  38  93 CALM      29.43S FOG
$$

MAZ007-012-024-CTZ003-RIZ002-NYZ038-NYZ072-232300-
SOUTHERN NEW ENGLAND AND NY

CITY           SKY/WX    TMP DP  RH WIND       PRES   REMARKS
BOSTON         LGT RAIN  44  42  93 NW21      29.49R
WORCESTER      FOG       45  43  93 W7        29.47F VSB 1/4
NANTUCKET      MOCLDY    49  49 100 S21G31    29.59R FOG
PROVIDENCE     CLOUDY    55  55 100 SW14      29.51R
HARTFORD       FOG       39  39 100 NW3       29.53R VSB 1/4
ALBANY         LGT RAIN  44  42  93 S8        29.51F VSB 1/4
NEW YORK CITY  HVY RAIN  56  49  77 W14G20    29.56R
$$

ANZ081-ANZ082-ANZ150-NHZ014-MEZ023>029-232300-
COASTAL MARINE OBSERVATIONS

STATION/POSITION TIME  TEMP    WIND        PRES    WAVE
                       AIR SEA DIR/SP/G            HT/PER
                 (UTC) (F)     (DEG/KT/KT) (MB)    (FT/S)
MOUNT DESERT ROC 2200   50     150/ 32/ 37 1001.3F
MATINICUS ROCK   2100   48     160/ 27/ 30 1000.1F
ISLE OF SHOALS   2100   47     190/ 23/ 28  998.0F
JEFFREYS LEDGE   2136      43                N/A     7/ 7
GEORGES BANK BUO 2050   56 60              1017.3    7/ 6
$$

.............KEY..............
   WCI - WIND CHILL
   TC  - TEMPERATURE IN CELSIUS
   VSB - VISIBILITY IN MILES
   HX  - HEAT INDEX
   FAIR- INDICATES FEW OR NO CLOUDS BELOW 12,000 FT, WITH NO
         SIGNIFICANT WEATHER AND/OR OBSTRUCTIONS TO VISIBILITY.






USA.gov is the U.S. government's official web portal to all federal, state and local government web resources and services.